[[{"header":{"parameterUnit":"m.s-1","parameterCategory":2,"la1":30.2991,"la2":30.254,"lo1":-89.0895,"lo2":-89.0444,"dy":0.0017,"dx":0.0017,"nx":28,"ny":28,"refTime":"2024-06-08T09:00:00:Z","depth":"0","parameterNumber":2,"parameterNumberName":"U-component_of_CURRENTS"},"data":[0,0,0,0,0,0,0,0,0,0,0,0,0,0,0,0,0,0,0,0,0,0,0,0,0,0,0,0,0,0,0,0,0,0,0,0,0,0,0,0,0,0,0,0,0,0,0,0,0,0,0,0,0,0,0,0,0,0,0.3174,0.3174,0,0.3166,0.3166,0.3165,0.3142,0.3142,0.3141,0.3141,0.3096,0.3095,0.3095,0,0,0,0,0,0,0,0,0,0,0,0,0,0.3181,0.318,0.3174,0.3174,0.3174,0.3166,0.3166,0.3165,0.3142,0.3142,0.3141,0.3141,0.3097,0.3096,0.3094,0,0,0,0,0,0,0,0,0,0,0,0,0,0.3174,0.318,0.3174,0.3163,0.3162,0.3166,0.3166,0.3165,0.3142,0.3142,0.3141,0.3141,0.3097,0.3096,0.3094,0.3096,0,0,0.309,0.309,0,0,0,0,0,0,0,0,0.3174,0.3173,0.3164,0.3163,0.3162,0.3156,0.3152,0.3141,0.3142,0.3148,0.3141,0.3141,0.3114,0.3112,0.3109,0.3094,0.3092,0.309,0.3089,0.3089,0.3088,0,0,0,0,0,0,0,0.3175,0.3174,0.3169,0.3164,0.3163,0.3163,0.3161,0.315,0.3132,0.3147,0.3146,0.3148,0.3113,0.3111,0.3108,0.3092,0.309,0.3089,0.3088,0.3088,0.3116,0.3117,0,0,0,0,0,0,0.3179,0.3174,0.3169,0.3169,0.3169,0.3163,0.3161,0.3157,0.3133,0.3129,0.3149,0.3147,0.3113,0.3109,0.3106,0.3139,0.3089,0.3088,0.3087,0.3114,0.3116,0.3118,0,0,0,0,0,0,0.3179,0.3179,0.3169,0.3173,0.3172,0.3163,0.3159,0.3157,0.3161,0.3135,0.313,0.3155,0.3112,0.3108,0.3109,0.3136,0.3087,0.3086,0.3113,0.3115,0.3117,0.3185,0,0,0,0,0,0,0.318,0.3179,0.3181,0.3173,0.3172,0.3181,0.316,0.3158,0.3163,0.3162,0.3139,0.3134,0.3112,0.3112,0.3108,0.3133,0.3085,0.3111,0.3114,0.3116,0.3181,0.3189,0.3196,0,0,0,0,0,0.318,0.3185,0.318,0.318,0.3174,0.3182,0.3181,0.3172,0.3165,0.3172,0.316,0.3135,0.3128,0.3112,0.3107,0.3133,0.3109,0.3113,0.3116,0.3177,0.3187,0.3196,0,0,0,0,0,0,0.3187,0.3184,0.3178,0.3181,0.3186,0.3178,0.3186,0.3181,0.3177,0.3176,0.3148,0.3143,0.3159,0.3138,0.3121,0.3152,0.3117,0.312,0.3165,0.3175,0.3182,0.3197,0.3084,0,0,0,0,0,0.3191,0.3193,0.3193,0.3195,0.3201,0.3196,0.3199,0.3195,0.3191,0.3189,0.3172,0.3163,0.3169,0.3165,0.3161,0.3171,0.3175,0.3187,0.3195,0.3202,0.3213,0.3256,0.3269,0.3129,0.3129,0.3129,0,0,0.3191,0.3193,0.3191,0.3198,0.3199,0.3213,0.3196,0.3208,0.3222,0.3185,0.3195,0.319,0.318,0.3197,0.3202,0.3181,0.3244,0.3206,0.3212,0.322,0.3261,0.3274,0.3287,0.3132,0.3131,0.3131,0,0,0.3199,0.32,0.3206,0.3217,0.3229,0.3232,0.324,0.324,0.3245,0.3256,0.3243,0.3258,0.3245,0.3254,0.3256,0.3307,0.3289,0.3302,0.3348,0.3389,0.3401,0.3412,0.3434,0.3446,0.3301,0.3301,0.3301,0,0.3201,0.3205,0.3211,0.3228,0.3237,0.3244,0.3258,0.3273,0.3273,0.3286,0.3267,0.329,0.3279,0.332,0.3339,0.3326,0.3338,0.331,0.34,0.3411,0.342,0.3441,0.3453,0.3305,0.3304,0.3304,0.3304,0,0.3214,0.3222,0.3232,0.3252,0.3269,0.3283,0.3306,0.3325,0.333,0.3342,0.3379,0.3374,0.3387,0.3392,0.3379,0.3445,0.3427,0.3409,0.3376,0.3439,0.3456,0.3468,0.331,0.3309,0.3308,0.3307,0,0,0.3198,0.3231,0.3233,0.3245,0.3281,0.3293,0.3338,0.3374,0.3407,0.342,0.3463,0.3484,0.3486,0.3491,0.3483,0.3517,0.3594,0.3494,0.3495,0.3516,0.3679,0.3631,0.3639,0.3592,0.3595,0.3597,0.3663,0,0.3201,0.3227,0.3248,0.3277,0.3291,0.3325,0.3365,0.3407,0.3438,0.3486,0.3514,0.355,0.3524,0.3537,0.3573,0.3594,0.3629,0.3578,0.3615,0.3616,0.3567,0.3653,0.3511,0.3555,0.3674,0.3676,0.3677,0,0.3199,0.3219,0.3242,0.3287,0.3298,0.3324,0.339,0.3427,0.351,0.3539,0.3591,0.3613,0.3679,0.3643,0.3719,0.3687,0.3693,0.3701,0.3704,0.3645,0.3591,0.3512,0.3571,0.3482,0.3695,0.3693,0.3692,0,0.3171,0.3212,0.3227,0.3241,0.3299,0.3325,0.3363,0.344,0.3481,0.358,0.3628,0.3695,0.3739,0.3772,0.3797,0.3764,0.3877,0.3828,0.3791,0.3786,0.3666,0.3647,0.3642,0.3887,0.3887,0.3887,0.3887,0,0.3155,0.3166,0.3215,0.3223,0.3255,0.3309,0.3357,0.3414,0.3507,0.3567,0.3651,0.3712,0.3776,0.3842,0.3843,0.3867,0.3916,0.3824,0.3814,0.3684,0.3667,0.3582,0.3531,0.3889,0.3889,0.3888,0.3888,0,0.311,0.314,0.316,0.322,0.3237,0.3261,0.3338,0.3379,0.3484,0.3571,0.361,0.3746,0.3835,0.3891,0.3957,0.3923,0.3833,0.3937,0.3776,0.3746,0.3592,0.3549,0.3399,0.33,0.3897,0.3897,0.3896,0,0.3084,0.3092,0.314,0.315,0.3171,0.3214,0.3245,0.3347,0.34,0.3579,0.3623,0.376,0.3838,0.3939,0.3923,0.3938,0.3812,0.3792,0.3701,0.359,0.3537,0.3381,0.3298,0.3566,0.3563,0.356,0.3558,0,0.304,0.3059,0.3076,0.3093,0.3118,0.3144,0.3205,0.3242,0.3375,0.3457,0.3582,0.3669,0.3805,0.377,0.3814,0.3797,0.3597,0.3737,0.3669,0.3326,0.311,0.3007,0.351,0.3535,0.3538,0.3539,0.3541,0.3542,0.3003,0.2998,0.302,0.302,0.3045,0.3058,0.3039,0.3122,0.318,0.3268,0.3446,0.3516,0.3595,0.3641,0.3605,0.347,0.3444,0.3339,0.3313,0.3179,0.3026,0.3479,0.3464,0.3466,0.3468,0.3469,0.347,0,0.2933,0.2932,0.2942,0.2928,0.2901,0.2952,0.2986,0.2946,0.2947,0.3095,0.3173,0.3255,0.3236,0.3275,0.3211,0.3073,0.2916,0.2972,0.2726,0.268,0.3133,0.3063,0.2904,0.2904,0.2904,0.2904,0.2905,0.2905,0.29,0.2864,0.2854,0.2775,0.2762,0.2681,0.2664,0.2637,0.2693,0.271,0.2752,0.2845,0.3002,0.2976,0.2842,0.2766,0.2546,0.2399,0.2408,0.2746,0.2777,0.2807,0.2731,0.2505,0.2505,0.1833,0.1828,0.1824]},{"header":{"parameterUnit":"m.s-1","parameterCategory":2,"la1":30.2991,"la2":30.254,"lo1":-89.0895,"lo2":-89.0444,"dy":0.0017,"dx":0.0017,"nx":28,"ny":28,"refTime":"2024-06-08T09:00:00:Z","depth":"0","parameterNumber":3,"parameterNumberName":"V-component_of_CURRENTS"},"data":[0,0,0,0,0,0,0,0,0,0,0,0,0,0,0,0,0,0,0,0,0,0,0,0,0,0,0,0,0,0,0,0,0,0,0,0,0,0,0,0,0,0,0,0,0,0,0,0,0,0,0,0,0,0,0,0,0,0,0.0167,0.0167,0,0.0137,0.0137,0.0136,0.0111,0.0111,0.0111,0.0111,0.0071,0.007,0.007,0,0,0,0,0,0,0,0,0,0,0,0,0,0.0153,0.0154,0.0167,0.0167,0.0167,0.0137,0.0137,0.0136,0.0111,0.0111,0.0111,0.0111,0.0072,0.0071,0.007,0,0,0,0,0,0,0,0,0,0,0,0,0,0.0144,0.0154,0.0167,0.0152,0.015,0.0137,0.0137,0.0136,0.0111,0.0111,0.0111,0.0111,0.0072,0.0071,0.0069,0.0066,0,0,0.0065,0.0065,0,0,0,0,0,0,0,0,0.0144,0.0144,0.0154,0.0153,0.0151,0.0129,0.0117,0.0113,0.0112,0.0125,0.0111,0.0111,0.0091,0.0088,0.0081,0.0064,0.0062,0.0065,0.0064,0.0064,0.0063,0,0,0,0,0,0,0,0.0145,0.0145,0.0154,0.0154,0.0152,0.0129,0.0128,0.0116,0.0108,0.0124,0.0122,0.0121,0.0089,0.0082,0.008,0.0062,0.0065,0.0064,0.0063,0.0063,0.0043,0.0043,0,0,0,0,0,0,0.0154,0.0146,0.0155,0.0153,0.0148,0.013,0.0128,0.0135,0.0109,0.0105,0.0121,0.012,0.0085,0.0082,0.0079,0.0089,0.0064,0.0062,0.0062,0.0043,0.0043,0.0043,0,0,0,0,0,0,0.0154,0.0156,0.0156,0.0149,0.0148,0.0131,0.0138,0.0135,0.0132,0.0107,0.0103,0.0123,0.0085,0.008,0.0076,0.0086,0.0062,0.0061,0.0042,0.0043,0.0043,0.0099,0,0,0,0,0,0,0.0154,0.0156,0.0161,0.015,0.0149,0.0159,0.0139,0.0134,0.0132,0.013,0.0107,0.0103,0.0084,0.0078,0.0075,0.0084,0.006,0.0042,0.0042,0.0043,0.0096,0.0101,0.0105,0,0,0,0,0,0.0154,0.0168,0.0162,0.0162,0.0158,0.016,0.0157,0.0142,0.0132,0.0138,0.0121,0.0103,0.0079,0.0078,0.0074,0.0082,0.0042,0.0042,0.0043,0.0095,0.01,0.0105,0,0,0,0,0,0,0.0165,0.0166,0.0159,0.0173,0.017,0.0156,0.0159,0.0148,0.0139,0.0135,0.011,0.0106,0.0102,0.0085,0.0085,0.0077,0.0056,0.0056,0.0097,0.0102,0.0106,0.0126,0.0058,0,0,0,0,0,0.017,0.0182,0.0176,0.0187,0.0188,0.0174,0.0172,0.0162,0.0153,0.0148,0.0132,0.0114,0.01,0.0097,0.0079,0.0082,0.0059,0.0082,0.0087,0.009,0.0103,0.0078,0.0081,0.0045,0.0045,0.0045,0,0,0.0177,0.018,0.0185,0.019,0.0186,0.0199,0.0172,0.0175,0.0185,0.0146,0.0154,0.0126,0.0102,0.0101,0.0098,0.0091,0.0087,0.0091,0.0095,0.0106,0.0079,0.0082,0.0085,0.0046,0.0046,0.0046,0,0,0.0204,0.0202,0.0221,0.0223,0.0222,0.0217,0.0222,0.0211,0.0207,0.0207,0.0179,0.0164,0.0145,0.0132,0.0122,0.014,0.0106,0.013,0.0174,0.0149,0.0152,0.0154,0.0125,0.0124,0.0137,0.0137,0.0137,0,0.021,0.0238,0.0226,0.0246,0.0256,0.0231,0.0257,0.0249,0.0238,0.0241,0.0218,0.0189,0.0162,0.0168,0.0169,0.0151,0.0129,0.0159,0.0155,0.0157,0.0159,0.0128,0.0127,0.014,0.014,0.0139,0.0139,0,0.0254,0.0273,0.0287,0.0308,0.0315,0.0332,0.0325,0.0328,0.0314,0.0303,0.0297,0.0255,0.0242,0.0224,0.0202,0.0204,0.0181,0.016,0.0146,0.0166,0.0132,0.0129,0.0144,0.0143,0.0142,0.0141,0,0,0.0282,0.0312,0.0319,0.0344,0.0351,0.0368,0.0385,0.04,0.0423,0.0386,0.0411,0.0364,0.0333,0.032,0.0282,0.0259,0.0239,0.022,0.0217,0.0197,0.018,0.018,0.0176,0.0217,0.0217,0.0217,0.015,0,0.0323,0.038,0.0381,0.0437,0.0468,0.0457,0.0484,0.0488,0.0479,0.0493,0.0441,0.0443,0.0372,0.0369,0.0331,0.0271,0.0236,0.0259,0.0159,0.0157,0.0158,0.0175,0.0218,0.0164,0.0148,0.0147,0.0147,0,0.0371,0.0406,0.047,0.0518,0.0531,0.0558,0.0603,0.0622,0.0623,0.0614,0.059,0.0549,0.0515,0.045,0.0345,0.0363,0.0277,0.0218,0.0213,0.0196,0.0152,0.0141,0.0159,0.004,0.0143,0.0143,0.0143,0,0.0416,0.0471,0.0529,0.0545,0.0591,0.0622,0.0647,0.0662,0.0699,0.0698,0.0721,0.0649,0.0638,0.052,0.0388,0.0367,0.0273,0.0226,0.0139,0.0137,0.0147,0.0147,0.0048,0.0147,0.0147,0.0147,0.0147,0,0.0468,0.0515,0.0559,0.0595,0.0674,0.0681,0.0759,0.077,0.0804,0.0871,0.0791,0.0824,0.0656,0.058,0.0431,0.0289,0.0298,0.0156,0.0127,0.0167,0.0169,0.0044,-0.0031,0.0144,0.0145,0.0146,0.0146,0,0.0511,0.0537,0.0611,0.0672,0.07,0.0758,0.0843,0.0898,0.0917,0.1003,0.1014,0.0963,0.0871,0.0693,0.0517,0.0367,0.0154,0.0161,0.0219,0.0198,0.0001,-0.0072,-0.0205,-0.0261,0.0052,0.0052,0.0051,0,0.0539,0.0582,0.0673,0.0726,0.076,0.0845,0.0912,0.0955,0.1026,0.1101,0.1157,0.1099,0.1091,0.0825,0.0559,0.0308,0.0161,0.0158,0.0121,0.0007,-0.0097,-0.0154,-0.0196,0.0146,0.0147,0.0147,0.0148,0,0.0592,0.0624,0.0686,0.0797,0.0879,0.0978,0.1078,0.1157,0.1231,0.1318,0.1415,0.142,0.1184,0.0972,0.062,0.0424,0.0091,0.0159,0.0027,-0.0034,-0.009,-0.0162,0.0163,0.0152,0.0151,0.0151,0.0151,0.0151,0.0631,0.0683,0.0767,0.0875,0.0973,0.1106,0.1202,0.1326,0.1475,0.1625,0.1616,0.1676,0.1347,0.0889,0.0607,0.0142,0.0112,-0.0002,-0.0083,-0.0133,-0.0175,0.016,0.0124,0.0124,0.0123,0.0123,0.0122,0,0.0678,0.0741,0.0839,0.0971,0.1086,0.1133,0.1311,0.1426,0.1624,0.1776,0.1876,0.179,0.1392,0.0941,0.032,-0.0023,-0.0159,-0.0217,-0.029,-0.0326,-0.0032,-0.0014,-0.0064,-0.0064,-0.0064,-0.0063,-0.0063,-0.0063,0.0705,0.0801,0.0852,0.1043,0.1141,0.1305,0.1415,0.1602,0.1755,0.1969,0.2048,0.2062,0.1756,0.0662,-0.0075,-0.0263,-0.0486,-0.0539,-0.0671,-0.047,-0.0456,-0.0443,-0.0443,-0.0582,-0.0583,-0.0904,-0.0908,-0.091]}],[{"header":{"parameterUnit":"m.s-1","parameterCategory":2,"la1":30.2991,"la2":30.254,"lo1":-89.0895,"lo2":-89.0444,"dy":0.0017,"dx":0.0017,"nx":28,"ny":28,"refTime":"2024-06-08T09:00:00:Z","depth":"2","parameterNumber":2,"parameterNumberName":"U-component_of_CURRENTS"},"data":[0,0,0,0,0,0,0,0,0,0,0,0,0,0,0,0,0,0,0,0,0,0,0,0,0,0,0,0,0,0,0,0,0,0,0,0,0,0,0,0,0,0,0,0,0,0,0,0,0,0,0,0,0,0,0,0,0,0,0.2705,0.2705,0,0.271,0.271,0.271,0.2704,0.2704,0.2704,0.2703,0.2691,0.269,0.269,0,0,0,0,0,0,0,0,0,0,0,0,0,0.2703,0.2703,0.2705,0.2705,0.2705,0.271,0.271,0.271,0.2704,0.2704,0.2704,0.2703,0.2691,0.269,0.269,0,0,0,0,0,0,0,0,0,0,0,0,0,0.2704,0.2703,0.2705,0.2703,0.2704,0.271,0.271,0.271,0.2704,0.2704,0.2703,0.2703,0.2691,0.269,0.269,0.2691,0,0,0.2689,0.2689,0,0,0,0,0,0,0,0,0.2704,0.2704,0.2703,0.2704,0.2704,0.2707,0.2705,0.2703,0.2704,0.2702,0.2703,0.2703,0.2695,0.2695,0.2694,0.269,0.269,0.2689,0.2689,0.2688,0.2688,0,0,0,0,0,0,0,0.2704,0.2704,0.2705,0.2704,0.2704,0.2708,0.2707,0.2704,0.2698,0.2702,0.2702,0.2705,0.2695,0.2695,0.2694,0.269,0.2689,0.2689,0.2688,0.2688,0.2735,0.2736,0,0,0,0,0,0,0.2705,0.2704,0.2705,0.2706,0.2705,0.2708,0.2708,0.2705,0.2699,0.2698,0.2705,0.2705,0.2695,0.2694,0.2694,0.2737,0.2688,0.2688,0.2688,0.2734,0.2735,0.2737,0,0,0,0,0,0,0.2705,0.2705,0.2705,0.2706,0.2707,0.2708,0.2706,0.2705,0.2717,0.2701,0.27,0.2719,0.2695,0.2694,0.2707,0.2735,0.2688,0.2688,0.2732,0.2734,0.2736,0.2796,0,0,0,0,0,0,0.2705,0.2705,0.271,0.2706,0.2707,0.2719,0.2706,0.2706,0.2719,0.2719,0.2713,0.271,0.2695,0.2707,0.2706,0.2733,0.2687,0.273,0.2733,0.2735,0.2793,0.28,0.2807,0,0,0,0,0,0.2705,0.2711,0.271,0.2711,0.2711,0.272,0.2721,0.272,0.272,0.273,0.2729,0.2711,0.2724,0.2708,0.2706,0.2734,0.2729,0.2732,0.2735,0.2789,0.2799,0.2807,0,0,0,0,0,0,0.2712,0.2711,0.271,0.2715,0.2722,0.2719,0.273,0.2731,0.2738,0.2742,0.2725,0.2723,0.2748,0.2734,0.2716,0.2757,0.2726,0.2729,0.2768,0.2776,0.2783,0.2795,0.2687,0,0,0,0,0,0.2717,0.2721,0.2722,0.2728,0.2734,0.2736,0.2742,0.2744,0.2747,0.2751,0.2745,0.2747,0.2759,0.2761,0.2764,0.2781,0.2784,0.28,0.2808,0.2814,0.2823,0.2861,0.2873,0.2748,0.2748,0.2748,0,0,0.2718,0.2722,0.2722,0.273,0.2736,0.275,0.274,0.2756,0.2773,0.2748,0.277,0.2773,0.2771,0.2794,0.2804,0.2785,0.2851,0.2818,0.2823,0.2829,0.2866,0.2878,0.2889,0.275,0.275,0.2749,0,0,0.2726,0.2731,0.2738,0.2749,0.2766,0.2771,0.278,0.2788,0.2798,0.2818,0.2814,0.2836,0.2838,0.285,0.2855,0.2905,0.2891,0.2906,0.2947,0.2984,0.2994,0.3003,0.302,0.303,0.2905,0.2906,0.2906,0,0.273,0.2735,0.2743,0.2759,0.277,0.2783,0.2798,0.2816,0.2827,0.2844,0.2833,0.2871,0.2869,0.2911,0.2931,0.2923,0.2933,0.2912,0.2993,0.3003,0.3011,0.3025,0.3036,0.2909,0.2908,0.2908,0.2908,0,0.274,0.2751,0.2761,0.2782,0.28,0.2816,0.2841,0.2865,0.2881,0.2896,0.2942,0.2946,0.2969,0.2976,0.2968,0.3032,0.3016,0.3001,0.297,0.3027,0.3039,0.3049,0.2914,0.2912,0.2911,0.2911,0,0,0.2724,0.2758,0.2761,0.2773,0.2812,0.2824,0.2871,0.2909,0.2944,0.2968,0.3013,0.3045,0.3055,0.3063,0.3063,0.3094,0.3163,0.3077,0.3077,0.3092,0.3236,0.3174,0.3178,0.3164,0.3166,0.3168,0.3218,0,0.2726,0.275,0.2771,0.28,0.2815,0.2851,0.2894,0.2938,0.2975,0.3026,0.306,0.3103,0.3087,0.3107,0.3141,0.3164,0.3193,0.315,0.318,0.318,0.3118,0.3189,0.292,0.2938,0.3227,0.3229,0.323,0,0.2721,0.274,0.2763,0.2809,0.282,0.2847,0.2915,0.2953,0.3038,0.3074,0.3131,0.3158,0.3225,0.3198,0.3269,0.3244,0.3249,0.3256,0.3258,0.3187,0.3138,0.2929,0.2944,0.3246,0.3245,0.3244,0.3243,0,0.2691,0.2731,0.2746,0.276,0.282,0.2846,0.2885,0.2966,0.3011,0.311,0.3162,0.3232,0.328,0.3311,0.3337,0.3312,0.3406,0.3367,0.3312,0.3306,0.3076,0.3047,0.3415,0.3415,0.3415,0.3415,0.3415,0,0.2671,0.2683,0.2734,0.2741,0.2775,0.2829,0.2882,0.2939,0.3036,0.3097,0.3183,0.3244,0.3315,0.3373,0.3374,0.3385,0.3439,0.3338,0.3327,0.3088,0.3061,0.3324,0.3313,0.3417,0.3416,0.3416,0.3416,0,0.2624,0.2656,0.2675,0.2736,0.2756,0.278,0.2867,0.2909,0.3017,0.3104,0.3144,0.3277,0.3356,0.3409,0.3468,0.3429,0.3443,0.3426,0.3138,0.3093,0.3303,0.3295,0.3367,0.3365,0.3364,0.3363,0.3362,0,0.2597,0.2603,0.2655,0.2667,0.269,0.2739,0.2775,0.2882,0.2933,0.3107,0.3144,0.3274,0.3335,0.3414,0.3377,0.3376,0.3437,0.3112,0.3015,0.3322,0.3304,0.3297,0.3291,0.2726,0.272,0.2715,0.2711,0,0.2548,0.2569,0.2585,0.2608,0.2636,0.2667,0.273,0.2768,0.2901,0.2977,0.3081,0.315,0.3251,0.3131,0.3154,0.3112,0.3093,0.3012,0.3418,0.279,0.2725,0.2705,0.2718,0.2667,0.2672,0.2675,0.2677,0.2679,0.251,0.2504,0.2527,0.2534,0.2564,0.2573,0.256,0.2635,0.2685,0.2761,0.2911,0.2916,0.2946,0.2844,0.2752,0.2677,0.2889,0.2731,0.2743,0.2761,0.2687,0.2625,0.2533,0.2537,0.254,0.2543,0.2545,0,0.244,0.2441,0.245,0.2442,0.2419,0.2475,0.2504,0.2462,0.2452,0.2559,0.2609,0.2412,0.2342,0.2377,0.2194,0.2189,0.214,0.2092,0.1989,0.2036,0.2078,0.1965,0.1622,0.1619,0.1616,0.1613,0,0,0.2406,0.2371,0.236,0.2286,0.2285,0.2212,0.2197,0.2156,0.2179,0.2138,0.2113,0.2278,0.2337,0.1958,0.1899,0.1727,0.187,0.1662,0.2409,0.2339,0.2376,0.246,0.2344,0,0,0,0,0]},{"header":{"parameterUnit":"m.s-1","parameterCategory":2,"la1":30.2991,"la2":30.254,"lo1":-89.0895,"lo2":-89.0444,"dy":0.0017,"dx":0.0017,"nx":28,"ny":28,"refTime":"2024-06-08T09:00:00:Z","depth":"2","parameterNumber":3,"parameterNumberName":"V-component_of_CURRENTS"},"data":[0,0,0,0,0,0,0,0,0,0,0,0,0,0,0,0,0,0,0,0,0,0,0,0,0,0,0,0,0,0,0,0,0,0,0,0,0,0,0,0,0,0,0,0,0,0,0,0,0,0,0,0,0,0,0,0,0,0,0.0271,0.0271,0,0.0243,0.0243,0.0242,0.0221,0.0221,0.0221,0.0221,0.0186,0.0185,0.0185,0,0,0,0,0,0,0,0,0,0,0,0,0,0.0259,0.0259,0.0271,0.0271,0.0271,0.0243,0.0243,0.0242,0.0221,0.0221,0.0221,0.0221,0.0187,0.0186,0.0185,0,0,0,0,0,0,0,0,0,0,0,0,0,0.025,0.026,0.0271,0.0258,0.0256,0.0243,0.0243,0.0242,0.0222,0.0221,0.0221,0.0221,0.0187,0.0186,0.0184,0.018,0,0,0.0181,0.018,0,0,0,0,0,0,0,0,0.0251,0.0251,0.026,0.0259,0.0257,0.0236,0.0225,0.0221,0.0222,0.0234,0.0221,0.0221,0.0203,0.02,0.0194,0.0178,0.0177,0.0181,0.018,0.0179,0.0179,0,0,0,0,0,0,0,0.0251,0.0251,0.0259,0.026,0.0258,0.0236,0.0235,0.0224,0.0219,0.0233,0.0231,0.023,0.0202,0.0196,0.0193,0.0176,0.0181,0.0179,0.0179,0.0178,0.0159,0.0159,0,0,0,0,0,0,0.0259,0.0252,0.026,0.0259,0.0254,0.0237,0.0236,0.0242,0.0219,0.0216,0.023,0.0229,0.0198,0.0195,0.0192,0.0201,0.0179,0.0178,0.0177,0.0159,0.0159,0.0159,0,0,0,0,0,0,0.0259,0.0261,0.0261,0.0255,0.0253,0.0238,0.0245,0.0242,0.0239,0.0217,0.0213,0.0231,0.0198,0.0194,0.019,0.0199,0.0178,0.0176,0.0158,0.0159,0.0159,0.0209,0,0,0,0,0,0,0.0259,0.0261,0.0266,0.0256,0.0254,0.0263,0.0245,0.0242,0.0239,0.0237,0.0217,0.0213,0.0197,0.0192,0.0189,0.0197,0.0175,0.0158,0.0159,0.0159,0.0207,0.0211,0.0214,0,0,0,0,0,0.0259,0.0272,0.0267,0.0267,0.0263,0.0264,0.0261,0.0248,0.0239,0.0244,0.0229,0.0214,0.0192,0.0191,0.0187,0.0195,0.0158,0.0158,0.0159,0.0205,0.021,0.0214,0,0,0,0,0,0,0.0269,0.027,0.0265,0.0277,0.0273,0.0261,0.0263,0.0253,0.0244,0.0241,0.022,0.0215,0.0212,0.0197,0.0197,0.019,0.0171,0.0171,0.0208,0.0212,0.0215,0.0234,0.0174,0,0,0,0,0,0.0274,0.0285,0.0279,0.0289,0.029,0.0276,0.0274,0.0265,0.0256,0.0252,0.0238,0.0222,0.021,0.0207,0.0192,0.0193,0.0171,0.0194,0.0197,0.0201,0.0213,0.0184,0.0187,0.0161,0.0161,0.0161,0,0,0.028,0.0283,0.0288,0.0292,0.0288,0.0299,0.0275,0.0276,0.0285,0.025,0.0257,0.0233,0.0212,0.0211,0.0208,0.0201,0.0195,0.0201,0.0204,0.0215,0.0185,0.0188,0.019,0.0161,0.0161,0.0161,0,0,0.0303,0.0302,0.0319,0.0321,0.0319,0.0314,0.0318,0.0308,0.0304,0.0304,0.028,0.0266,0.025,0.0238,0.023,0.0245,0.0212,0.0236,0.0275,0.0247,0.0249,0.0251,0.0221,0.0219,0.0241,0.0242,0.0242,0,0.0308,0.0335,0.0323,0.0341,0.0351,0.0327,0.035,0.0342,0.0331,0.0334,0.0313,0.0288,0.0265,0.0269,0.0271,0.0255,0.0231,0.0261,0.0253,0.0254,0.0255,0.0223,0.0221,0.0244,0.0244,0.0243,0.0243,0,0.0347,0.0366,0.0378,0.0397,0.0403,0.0418,0.0411,0.0413,0.04,0.0389,0.0383,0.0346,0.0334,0.0319,0.03,0.0298,0.0277,0.0258,0.0244,0.026,0.0226,0.0223,0.0247,0.0247,0.0246,0.0245,0,0,0.037,0.0399,0.0406,0.043,0.0436,0.0451,0.0466,0.0478,0.0497,0.0463,0.0483,0.0443,0.0415,0.0403,0.037,0.0346,0.0322,0.0309,0.0307,0.0285,0.0259,0.0243,0.0238,0.03,0.0299,0.0299,0.0231,0,0.0407,0.0459,0.0461,0.0513,0.0542,0.0532,0.0555,0.0557,0.0547,0.0557,0.051,0.051,0.0449,0.0447,0.0409,0.035,0.0317,0.0343,0.0242,0.0239,0.0228,0.0235,0.0254,0.0195,0.0227,0.0227,0.0226,0,0.045,0.0483,0.0541,0.0587,0.0599,0.0623,0.0662,0.068,0.0675,0.0665,0.0642,0.0603,0.0568,0.0513,0.041,0.0428,0.035,0.0293,0.0289,0.0259,0.0219,0.0184,0.0187,0.022,0.0221,0.0221,0.0222,0,0.049,0.0541,0.0596,0.0611,0.0654,0.068,0.0704,0.0713,0.0746,0.0739,0.0755,0.0688,0.0672,0.0563,0.0436,0.0425,0.0319,0.0286,0.0196,0.0193,0.0183,0.018,0.0211,0.0211,0.0212,0.0212,0.0212,0,0.0536,0.0581,0.0621,0.0654,0.0727,0.0734,0.0803,0.0812,0.0838,0.0893,0.0818,0.0839,0.0684,0.0604,0.0469,0.0327,0.0338,0.0208,0.0178,0.02,0.0199,0.0202,0.0202,0.0209,0.021,0.021,0.0211,0,0.0575,0.06,0.0669,0.0725,0.0751,0.0804,0.0881,0.093,0.094,0.1011,0.1017,0.0957,0.0854,0.0688,0.0518,0.0385,0.0242,0.0185,0.022,0.0196,0.0123,0.0126,0.0079,0.0078,0.0077,0.0076,0.0076,0,0.06,0.064,0.0725,0.0775,0.0804,0.0883,0.0944,0.0982,0.1042,0.109,0.1134,0.1059,0.1024,0.076,0.0517,0.0281,0.0244,0.0134,0.0113,0.0135,0.0111,0.0115,0.0119,0.0111,0.0111,0.0111,0.0111,0,0.0648,0.0677,0.0736,0.0838,0.0912,0.1006,0.1094,0.116,0.1221,0.1277,0.1331,0.1309,0.1069,0.0837,0.0509,0.0344,0.0171,0.0122,0.0139,0.0147,0.0161,0.0139,0.0143,0.0109,0.0109,0.0109,0.0109,0.0109,0.0684,0.0731,0.0808,0.0907,0.0997,0.1115,0.1201,0.1299,0.1413,0.1499,0.1473,0.1434,0.117,0.0753,0.0469,0.0161,0.0179,0.006,0.0063,0.0065,0.0086,0.0099,0.0038,0.0038,0.0037,0.0037,0.0037,0,0.0726,0.0782,0.0872,0.0991,0.1093,0.114,0.1294,0.1381,0.152,0.1585,0.1622,0.1366,0.1105,0.079,0.0346,0.0088,0.0063,-0.0009,0.0021,0.0026,0.0029,0.0049,-0.001,-0.0011,-0.0012,-0.0012,0,0,0.075,0.0835,0.088,0.1048,0.1137,0.1282,0.1375,0.1505,0.1586,0.165,0.1622,0.1562,0.1195,0.0863,0.0509,0.0252,0.0195,0.0192,0.026,0.0343,0.035,0.01,0.014,0,0,0,0,0]}],[{"header":{"parameterUnit":"m.s-1","parameterCategory":2,"la1":30.2991,"la2":30.254,"lo1":-89.0895,"lo2":-89.0444,"dy":0.0017,"dx":0.0017,"nx":28,"ny":28,"refTime":"2024-06-08T09:00:00:Z","depth":"4","parameterNumber":2,"parameterNumberName":"U-component_of_CURRENTS"},"data":[0,0,0,0,0,0,0,0,0,0,0,0,0,0,0,0,0,0,0,0,0,0,0,0,0,0,0,0,0,0,0,0,0,0,0,0,0,0,0,0,0,0,0,0,0,0,0,0,0,0,0,0,0,0,0,0,0,0,0.1772,0.1772,0,0.1822,0.1823,0.1823,0.1875,0.1876,0.1876,0.1877,0.1944,0.1945,0.1946,0,0,0,0,0,0,0,0,0,0,0,0,0,0.1721,0.1722,0.1772,0.1772,0.1773,0.1822,0.1823,0.1824,0.1875,0.1876,0.1877,0.1878,0.1943,0.1944,0.1946,0,0,0,0,0,0,0,0,0,0,0,0,0,0.1753,0.1722,0.1772,0.1806,0.1809,0.1822,0.1823,0.1824,0.1874,0.1876,0.1877,0.1878,0.1943,0.1944,0.1946,0.1931,0,0,0.195,0.1951,0,0,0,0,0,0,0,0,0.1751,0.1755,0.18,0.1803,0.1807,0.1845,0.183,0.1861,0.1874,0.1848,0.1877,0.1879,0.1912,0.1916,0.1921,0.1934,0.1937,0.1951,0.1952,0.1952,0.1953,0,0,0,0,0,0,0,0.1749,0.1753,0.179,0.1801,0.1805,0.1819,0.1825,0.1836,0.1872,0.1851,0.1855,0.1862,0.1914,0.1919,0.1923,0.1938,0.1951,0.1952,0.1953,0.1953,0.2054,0.2055,0,0,0,0,0,0,0.1744,0.1751,0.1789,0.1792,0.1783,0.1819,0.1826,0.183,0.1872,0.1879,0.1861,0.1864,0.1916,0.1921,0.1925,0.2012,0.1952,0.1954,0.1954,0.2052,0.2054,0.2056,0,0,0,0,0,0,0.1743,0.1747,0.1787,0.1774,0.178,0.1819,0.1824,0.1831,0.1876,0.188,0.1888,0.1904,0.1917,0.1923,0.1972,0.2011,0.1954,0.1956,0.205,0.2053,0.2055,0.212,0,0,0,0,0,0,0.1741,0.1746,0.1768,0.1773,0.1781,0.1819,0.1823,0.1831,0.1877,0.1883,0.1918,0.1923,0.1919,0.197,0.1973,0.2012,0.1957,0.2048,0.2051,0.2054,0.2116,0.2124,0.2132,0,0,0,0,0,0.1739,0.1757,0.1769,0.1775,0.1803,0.182,0.1825,0.1855,0.1878,0.1901,0.1931,0.1924,0.1993,0.1972,0.1976,0.2016,0.2046,0.205,0.2054,0.2112,0.2123,0.2132,0,0,0,0,0,0,0.1749,0.1764,0.1777,0.1801,0.1822,0.183,0.1861,0.1877,0.1918,0.1939,0.1943,0.195,0.2009,0.2003,0.198,0.2056,0.202,0.2025,0.2063,0.2073,0.2081,0.2085,0.1958,0,0,0,0,0,0.1759,0.178,0.1792,0.1817,0.1831,0.1854,0.1874,0.1893,0.1919,0.1941,0.1964,0.1993,0.202,0.2041,0.206,0.2098,0.2096,0.2128,0.2136,0.2143,0.215,0.2184,0.2196,0.2069,0.2069,0.2069,0,0,0.177,0.1783,0.1796,0.1822,0.1844,0.1867,0.187,0.1911,0.1942,0.194,0.2006,0.2026,0.2038,0.2085,0.211,0.209,0.2178,0.2148,0.2154,0.2157,0.2189,0.2201,0.2212,0.2072,0.2071,0.2071,0,0,0.1787,0.1816,0.1835,0.1856,0.1895,0.1906,0.1926,0.1957,0.1991,0.2042,0.2055,0.2102,0.2139,0.2157,0.2168,0.2233,0.2222,0.2245,0.229,0.2323,0.2334,0.2343,0.2355,0.2365,0.2248,0.2248,0.2248,0,0.1805,0.1823,0.1846,0.187,0.1894,0.1928,0.1954,0.1988,0.2035,0.2066,0.2076,0.2156,0.2171,0.2224,0.2253,0.2252,0.2263,0.225,0.2334,0.2343,0.2351,0.2361,0.2371,0.2251,0.2251,0.2251,0.225,0,0.182,0.1853,0.1871,0.1909,0.194,0.1971,0.201,0.2059,0.2105,0.2133,0.2213,0.2237,0.2283,0.23,0.2299,0.2371,0.2356,0.2341,0.2306,0.2368,0.2374,0.2384,0.2257,0.2255,0.2254,0.2253,0,0,0.1807,0.1868,0.1879,0.1904,0.1965,0.1985,0.2052,0.2108,0.216,0.222,0.2283,0.2343,0.237,0.2385,0.2397,0.243,0.2501,0.242,0.242,0.2428,0.2569,0.2401,0.2395,0.2506,0.2508,0.2509,0.2549,0,0.1815,0.1859,0.1892,0.1946,0.1971,0.2028,0.2085,0.2149,0.2208,0.228,0.2332,0.2399,0.2398,0.2437,0.2472,0.2501,0.2529,0.2491,0.2512,0.2512,0.2352,0.2401,0.2516,0.2555,0.2557,0.2559,0.256,0,0.1808,0.1842,0.1893,0.1964,0.1984,0.203,0.2124,0.2178,0.2282,0.2336,0.2412,0.2455,0.2536,0.2519,0.2596,0.2576,0.2584,0.2591,0.2592,0.2418,0.2361,0.2482,0.2576,0.2575,0.2574,0.2573,0.2572,0,0.1767,0.1839,0.1881,0.1906,0.1994,0.2044,0.2101,0.2203,0.226,0.2382,0.2442,0.2528,0.2591,0.2624,0.2656,0.264,0.272,0.269,0.254,0.2528,0.2639,0.2628,0.2734,0.2734,0.2734,0.2734,0.2734,0,0.1736,0.1774,0.1873,0.1894,0.1959,0.2034,0.2117,0.219,0.2303,0.2367,0.2474,0.2528,0.2627,0.2679,0.2685,0.2639,0.2744,0.2553,0.2529,0.2664,0.2657,0.2645,0.2634,0.2736,0.2735,0.2735,0.2735,0,0.1671,0.1737,0.1792,0.19,0.1939,0.1989,0.2117,0.2168,0.2296,0.2384,0.2432,0.2562,0.2623,0.2685,0.2741,0.2658,0.2641,0.2596,0.2743,0.2726,0.2418,0.2411,0.242,0.2414,0.241,0.2406,0.2402,0,0.1635,0.1659,0.1782,0.1819,0.1873,0.1962,0.2019,0.2151,0.2201,0.2373,0.2397,0.2519,0.2583,0.2523,0.2602,0.2589,0.2557,0.2524,0.246,0.2411,0.2388,0.2388,0.2387,0.2395,0.2394,0.2392,0.2391,0,0.1565,0.163,0.1676,0.1753,0.182,0.1876,0.1967,0.199,0.2134,0.2275,0.23,0.2324,0.2385,0.2409,0.2424,0.2411,0.2531,0.2474,0.2483,0.2422,0.238,0.2363,0.2367,0.2375,0.2377,0.2379,0.238,0,0.1523,0.1537,0.1612,0.1661,0.174,0.1757,0.182,0.1868,0.1931,0.2113,0.2115,0.2238,0.2359,0.2317,0.233,0.2307,0.226,0.2168,0.2191,0.221,0.2122,0.2037,0.1909,0,0,0,0,0,0.1465,0.1465,0.1509,0.1547,0.1619,0.1661,0.1766,0.1832,0.1972,0.1933,0.2015,0.2055,0.2069,0.2131,0.2062,0.2239,0.2276,0.2148,0.2184,0.2285,0.2303,0.2218,0,0,0,0,0,0,0.1424,0.1464,0.1467,0.1439,0.1445,0.1501,0.1562,0.1659,0.1642,0.1794,0.1812,0.1923,0.1971,0.2086,0.2021,0.2039,0.2015,0.2226,0.222,0.2274,0.2291,0.2306,0.2225,0,0,0,0,0]},{"header":{"parameterUnit":"m.s-1","parameterCategory":2,"la1":30.2991,"la2":30.254,"lo1":-89.0895,"lo2":-89.0444,"dy":0.0017,"dx":0.0017,"nx":28,"ny":28,"refTime":"2024-06-08T09:00:00:Z","depth":"4","parameterNumber":3,"parameterNumberName":"V-component_of_CURRENTS"},"data":[0,0,0,0,0,0,0,0,0,0,0,0,0,0,0,0,0,0,0,0,0,0,0,0,0,0,0,0,0,0,0,0,0,0,0,0,0,0,0,0,0,0,0,0,0,0,0,0,0,0,0,0,0,0,0,0,0,0,0.023,0.023,0,0.0215,0.0214,0.0214,0.0207,0.0207,0.0207,0.0207,0.019,0.019,0.0189,0,0,0,0,0,0,0,0,0,0,0,0,0,0.0217,0.0218,0.023,0.023,0.023,0.0215,0.0214,0.0214,0.0207,0.0207,0.0207,0.0208,0.019,0.019,0.0189,0,0,0,0,0,0,0,0,0,0,0,0,0,0.0214,0.0218,0.023,0.0225,0.0224,0.0215,0.0214,0.0214,0.0207,0.0207,0.0207,0.0208,0.0191,0.019,0.0189,0.0183,0,0,0.0187,0.0187,0,0,0,0,0,0,0,0,0.0215,0.0215,0.0225,0.0225,0.0224,0.0213,0.0204,0.0204,0.0207,0.0213,0.0207,0.0208,0.0198,0.0197,0.0193,0.0182,0.0182,0.0187,0.0186,0.0186,0.0186,0,0,0,0,0,0,0,0.0215,0.0215,0.0223,0.0225,0.0225,0.0211,0.0211,0.0204,0.0205,0.0213,0.0212,0.0211,0.0198,0.0194,0.0193,0.0181,0.0187,0.0186,0.0186,0.0185,0.0176,0.0176,0,0,0,0,0,0,0.0219,0.0216,0.0224,0.0223,0.022,0.0211,0.0211,0.0216,0.0205,0.0204,0.0211,0.0211,0.0195,0.0194,0.0192,0.0204,0.0186,0.0185,0.0185,0.0176,0.0176,0.0176,0,0,0,0,0,0,0.0219,0.022,0.0225,0.0219,0.0218,0.0212,0.0217,0.0216,0.0219,0.0204,0.0202,0.0216,0.0195,0.0193,0.0194,0.0203,0.0185,0.0184,0.0176,0.0176,0.0176,0.0216,0,0,0,0,0,0,0.0219,0.0221,0.0226,0.0219,0.0219,0.0228,0.0217,0.0216,0.0218,0.0217,0.0207,0.0206,0.0195,0.0196,0.0194,0.0202,0.0184,0.0175,0.0176,0.0176,0.0215,0.0218,0.0221,0,0,0,0,0,0.0219,0.0229,0.0227,0.0228,0.0227,0.0228,0.0227,0.0222,0.0218,0.0223,0.0216,0.0206,0.0196,0.0195,0.0193,0.0201,0.0175,0.0176,0.0176,0.0213,0.0217,0.0221,0,0,0,0,0,0,0.0227,0.0229,0.0227,0.0237,0.0236,0.0228,0.0232,0.0226,0.0225,0.0225,0.0211,0.0209,0.0211,0.02,0.0199,0.0198,0.0183,0.0183,0.0212,0.0216,0.0219,0.0234,0.0183,0,0,0,0,0,0.0231,0.0241,0.0237,0.0247,0.0248,0.0241,0.024,0.0236,0.0232,0.0232,0.0225,0.0216,0.0209,0.0209,0.02,0.0202,0.0182,0.0204,0.0207,0.021,0.022,0.0193,0.0195,0.0178,0.0178,0.0178,0,0,0.0236,0.0239,0.0244,0.0249,0.0248,0.0258,0.0241,0.0245,0.0254,0.023,0.0242,0.0226,0.0212,0.0214,0.0214,0.0208,0.0203,0.0211,0.0213,0.0222,0.0194,0.0196,0.0197,0.0178,0.0178,0.0178,0,0,0.0254,0.0256,0.027,0.0273,0.0274,0.0272,0.0276,0.0272,0.0271,0.0276,0.026,0.0253,0.0245,0.0237,0.0232,0.0245,0.0218,0.024,0.0271,0.0245,0.0246,0.0247,0.0218,0.0216,0.0243,0.0243,0.0244,0,0.0259,0.028,0.0273,0.0288,0.0298,0.0283,0.0302,0.0298,0.0295,0.0299,0.0286,0.0273,0.0257,0.0262,0.0266,0.0253,0.0232,0.026,0.0249,0.025,0.025,0.022,0.0218,0.0245,0.0245,0.0245,0.0245,0,0.0287,0.0305,0.0314,0.0332,0.034,0.0353,0.035,0.0356,0.0351,0.0344,0.0345,0.032,0.0314,0.0303,0.029,0.0288,0.027,0.0254,0.0242,0.0254,0.0222,0.0218,0.0248,0.0248,0.0247,0.0247,0,0,0.0301,0.0329,0.0335,0.0357,0.0366,0.038,0.0395,0.0408,0.0425,0.0405,0.0422,0.0397,0.0378,0.037,0.0346,0.0324,0.0301,0.0295,0.0293,0.0271,0.0241,0.022,0.0214,0.0282,0.0282,0.0282,0.0215,0,0.0328,0.0371,0.0377,0.0422,0.0446,0.0444,0.0465,0.0471,0.0467,0.0478,0.0444,0.0448,0.0405,0.0406,0.0374,0.0324,0.0295,0.0321,0.0229,0.0227,0.021,0.021,0.0281,0.0213,0.0212,0.0211,0.0211,0,0.0357,0.0386,0.0436,0.0479,0.049,0.0514,0.0552,0.0569,0.0569,0.0564,0.055,0.0523,0.0495,0.0455,0.0367,0.0385,0.0319,0.0271,0.0267,0.0234,0.02,0.0198,0.0204,0.0205,0.0205,0.0206,0.0206,0,0.0382,0.0429,0.0476,0.0491,0.0533,0.056,0.0585,0.0597,0.0626,0.0625,0.0639,0.0587,0.0575,0.0486,0.038,0.0375,0.0276,0.0254,0.017,0.0168,0.0189,0.0189,0.0189,0.0189,0.0189,0.0189,0.019,0,0.0411,0.045,0.0496,0.0524,0.0588,0.0601,0.0664,0.0676,0.0701,0.0742,0.0691,0.0698,0.0583,0.0511,0.0402,0.0276,0.0286,0.0179,0.0151,0.0206,0.0208,0.0186,0.0186,0.0187,0.0187,0.0188,0.0188,0,0.043,0.0459,0.0519,0.0576,0.0604,0.0652,0.0728,0.0768,0.0783,0.0834,0.0841,0.0787,0.0691,0.0561,0.0417,0.0314,0.0191,0.0141,0.0212,0.0189,0.0093,0.0096,0.0045,0.0044,0.0043,0.0042,0.0041,0,0.0443,0.0476,0.0562,0.0607,0.064,0.0714,0.0768,0.081,0.0854,0.0885,0.091,0.0842,0.0785,0.0566,0.0418,0.0206,0.017,0.0098,0.0092,0.0101,0.0079,0.0084,0.0089,0.0039,0.0039,0.0039,0.0039,0,0.0467,0.05,0.0551,0.0645,0.0714,0.0797,0.0874,0.0912,0.0962,0.0978,0.0965,0.0859,0.0749,0.057,0.0405,0.0251,0.014,0.0086,0.0087,0.0081,0.0093,0.0074,0.008,0.0035,0.0035,0.0036,0.0036,0,0.0486,0.0523,0.0594,0.0677,0.0767,0.0852,0.0894,0.0946,0.0991,0.1017,0.1009,0.0891,0.0825,0.0593,0.0442,0.0288,0.0242,0.0178,0.0173,0.0175,0.0226,0.0263,0.0237,0,0,0,0,0,0.0501,0.0545,0.062,0.0713,0.0802,0.086,0.0954,0.0987,0.1034,0.1031,0.1023,0.0919,0.0701,0.0608,0.0451,0.0408,0.0207,0.0215,0.0129,0.0015,0.0019,0.0054,0,0,0,0,0,0,0.051,0.0579,0.0617,0.0728,0.0794,0.0899,0.0962,0.0997,0.0994,0.1012,0.0901,0.086,0.0649,0.079,0.0442,0.0397,0.0314,0.0121,0.0117,0.0012,0.0016,0.0019,0.0057,0,0,0,0,0]}]]